Minneapolis Flying Cloud, MN

9:13 AM CDT on May 23, 2017 (GMT -0500)
Flying Cloud

Weather History for KFCM - January, 2013

Change the Weather History Date:

Tuesday, January 22, 2013

  Actual Average Record
Temperature  
Mean Temperature -4 °F -  
Max Temperature 5 °F 21 °F 42 °F (2002)
Min Temperature -11 °F 7 °F -11 °F (2013)
Degree Days  
Heating Degree Days 69    
Moisture  
Dew Point -12 °F    
Average Humidity 64    
Maximum Humidity 70    
Minimum Humidity 54    
Precipitation  
Precipitation 0.00 in - - ()
Sea Level Pressure  
Sea Level Pressure 30.39 in    
Wind  
Wind Speed 6 mph (WNW)    
Max Wind Speed 12 mph    
Max Gust Speed -    
Visibility 10 miles    
Events      
Averages and records for this station are not official NWS values.
T = Trace of Precipitation, MM = Missing Value Source: NWS Daily Summary

Daily Weather History Graph

Daily Weather History Graph

Search for Another Location

Airport or City:

Trip Planner

Search our weather history database for the weather conditions in past years. The results will help you decide how hot, cold, wet, or windy it might be!

Date:

Astronomy

Jan. 22, 2013 Rise Set
Actual Time 7:42 AM CST 5:08 PM CST
Civil Twilight 7:10 AM CST 5:40 PM CST
Nautical Twilight 6:35 AM CST 6:16 PM CST
Astronomical Twilight 6:00 AM CST 6:51 PM CST
Moon 1:30 PM CST (1/22) 4:06 AM CST (1/22)
Length of Visible Light 10h 29m
Length of Day
9h 25m
Waxing Gibbous, 83% of the Moon is Illuminated
Jan 22
Waxing Gibbous
Jan 26
Full
Feb 3
Last Quarter
Feb 10
New
Feb 17
First Quarter

Hourly Weather History & Observations

Time (CST) Temp. Windchill Dew Point Humidity Pressure Visibility Wind Dir Wind Speed Gust Speed Precip Events Conditions
12:53 AM -6.0 °F -24.6 °F -14.1 °F 68% 30.38 in 10.0 mi NNW 11.5 mph - N/A   Clear
1:53 AM -7.1 °F -21.4 °F -16.1 °F 65% 30.40 in 10.0 mi NNW 6.9 mph - N/A   Clear
2:53 AM -7.1 °F -15.9 °F -15.0 °F 68% 30.41 in 10.0 mi NW 3.5 mph - N/A   Clear
3:53 AM -8.0 °F -21.0 °F -16.1 °F 68% 30.40 in 10.0 mi NNW 5.8 mph - N/A   Clear
4:53 AM -9.0 °F -18.2 °F -17.0 °F 68% 30.41 in 10.0 mi NNW 3.5 mph - N/A   Clear
5:53 AM -9.0 °F -20.4 °F -17.0 °F 68% 30.42 in 10.0 mi NNW 4.6 mph - N/A   Clear
6:53 AM -9.9 °F -21.5 °F -18.0 °F 68% 30.44 in 10.0 mi NNW 4.6 mph - N/A   Clear
7:53 AM -11.0 °F -22.8 °F -18.9 °F 68% 30.43 in 10.0 mi North 4.6 mph - N/A   Clear
8:53 AM -9.0 °F -20.4 °F -18.0 °F 65% 30.45 in 10.0 mi NNW 4.6 mph - N/A   Clear
9:53 AM -7.1 °F - -17.0 °F 62% 30.46 in 10.0 mi Calm Calm - N/A   Clear
10:53 AM -5.1 °F -15.8 °F -16.1 °F 59% 30.47 in 10.0 mi WNW 4.6 mph - N/A   Clear
11:53 AM -2.0 °F -13.9 °F -14.1 °F 57% 30.45 in 10.0 mi WNW 5.8 mph - N/A   Clear
12:53 PM -0.9 °F -14.1 °F -14.1 °F 54% 30.43 in 10.0 mi West 6.9 mph - N/A   Clear
1:53 PM -0.0 °F -14.2 °F -11.9 °F 57% 30.41 in 10.0 mi West 8.1 mph - N/A   Clear
2:53 PM -0.0 °F -13.0 °F -11.9 °F 57% 30.40 in 10.0 mi SW 6.9 mph - N/A   Overcast
3:53 PM 1.0 °F -11.7 °F -9.9 °F 60% 30.39 in 10.0 mi WSW 6.9 mph - N/A   Scattered Clouds
4:53 PM 1.0 °F -10.3 °F -9.9 °F 60% 30.38 in 10.0 mi WSW 5.8 mph - N/A   Clear
5:53 PM 1.0 °F -8.7 °F -9.0 °F 63% 30.38 in 10.0 mi WSW 4.6 mph - N/A   Overcast
6:53 PM 1.9 °F - -8.0 °F 63% 30.36 in 10.0 mi Calm Calm - N/A   Overcast
7:53 PM 1.9 °F -7.6 °F -7.1 °F 66% 30.35 in 10.0 mi WSW 4.6 mph - N/A   Overcast
8:53 PM 3.0 °F -8.0 °F -6.0 °F 66% 30.34 in 10.0 mi SW 5.8 mph - N/A   Overcast
9:53 PM 3.9 °F - -5.1 °F 66% 30.32 in 10.0 mi Calm Calm - N/A   Overcast
10:53 PM 3.9 °F - -4.0 °F 70% 30.30 in 10.0 mi Calm Calm - N/A   Overcast
11:53 PM 5.0 °F - -4.0 °F 66% 30.29 in 10.0 mi Calm Calm - N/A   Overcast